#timestamp,LO_Frequency,Hit,StdDev 
1645952415.9,286046997.3,N
1645952435.7,286046996.9,N
1645952455.5,286046998.6,N
1645952475.4,286046998.4,N
1645952495.2,286046999.1,N
1645952515.1,286046999.5,N
1645952516.0,286046999.5,N
1645952535.8,286046998.4,N
1645952555.6,286047001.0,N
1645952575.5,286046998.2,N
1645952595.3,286047000.9,N
1645952615.2,286046998.4,N
1645952635.9,286046998.3,N
1645952655.7,286046999.9,N
1645952675.6,286047000.0,N
1645952695.4,286046999.8,N
1645952715.2,286046999.9,N
1645952735.1,286047000.2,N
1645952736.0,286047000.2,N
1645952755.8,286047002.7,N
1645952775.7,286046999.7,N
1645952795.5,286047000.0,N
1645952815.3,286046999.6,N
1645952835.2,286046997.4,N
1645952855.0,286046996.9,N
1645952855.9,286046996.9,N
1645952875.7,286046996.7,N
1645952895.6,286046998.3,N
1645952915.4,286046998.7,N
1645952935.3,286047001.2,N
1645952955.1,286046997.2,N
1645952956.0,286046997.2,N
1645952975.8,286046997.3,N
1645952995.7,286046998.8,N
1645953015.5,286046999.5,N
1645953035.3,286046998.1,N
1645953055.2,286047001.1,N
1645953075.0,286047001.2,N
1645953075.9,286047001.2,N
1645953095.8,286047001.2,N
1645953115.6,286046999.4,N
1645953135.4,286047001.1,N
1645953155.3,286046998.5,N
1645953175.1,286046998.1,N
1645953195.9,286047001.0,N
1645953215.7,286046998.7,N
1645953235.5,286046998.3,N
1645953255.4,286047001.2,N
1645953275.2,286047000.9,N
1645953295.0,286046998.9,N
1645953295.9,286046998.9,N
1645953315.8,286046998.6,N
1645953335.6,286046998.4,N
1645953355.5,286046998.1,N
1645953375.3,286047002.6,N
1645953395.1,286047000.5,N
1645953415.9,286046998.6,N
1645953435.7,286046996.8,N
1645953455.5,286046996.9,N
1645953475.4,286046996.9,N
1645953495.2,286046997.4,N
1645953515.1,286046997.0,N
1645953516.0,286046997.0,N
1645953535.8,286046998.8,N
1645953555.6,286046999.0,N
1645953575.5,286046998.4,N
1645953595.3,286047000.7,N
1645953615.1,286047000.1,N
1645953635.9,286046999.8,N
1645953655.7,286047000.1,N
1645953675.6,286046999.8,N
1645953695.4,286047000.7,N
1645953715.2,286047000.8,N
1645953735.1,286046999.0,N
1645953736.0,286046999.0,N
1645953755.8,286046996.9,N
1645953775.6,286046998.1,N
1645953795.5,286047000.8,N
1645953815.3,286047001.1,N
1645953835.2,286047000.5,N
1645953855.9,286047000.1,N
1645953875.7,286047002.7,N
1645953895.6,286047000.5,N
1645953915.4,286047000.4,N
1645953935.2,286047000.1,N
1645953955.1,286046999.8,N
1645953956.0,286046999.8,N
1645953975.8,286047002.8,N
1645953995.7,286047000.6,N
1645954015.5,286047002.0,N
1645954035.3,286047002.3,N
1645954055.2,286047002.6,N
1645954075.9,286047001.8,N
1645954095.7,286047004.3,Y
1645954115.6,286047001.3,P
1645954135.4,286047002.1,P
1645954155.3,286047002.6,P
1645954175.1,286047002.6,N
1645954176.0,286047002.6,N
1645954195.8,286047002.0,N
1645954215.7,286046999.7,N
1645954235.5,286047002.1,N
1645954255.3,286047001.6,N
1645954275.2,286047002.4,N
1645954295.0,286047000.4,N
1645954295.9,286047000.4,N
1645954315.8,286047002.4,N
1645954335.6,286047000.2,N
1645954355.4,286047001.9,N
1645954375.3,286047002.6,N
1645954395.1,286047002.6,N
1645954415.8,286047002.6,N
1645954435.7,286047000.1,N
1645954455.5,286047000.9,N
1645954475.4,286046998.1,N
1645954495.2,286046998.7,N
1645954515.0,286047001.2,N
1645954515.9,286047001.2,N
1645954535.8,286046998.9,N
1645954555.6,286046998.3,N
1645954575.4,286046999.1,N
1645954595.3,286046999.6,N
1645954615.1,286046998.9,N
1645954635.9,286047001.0,N
1645954655.7,286046998.2,N
1645954675.6,286047000.3,N
1645954695.4,286047000.4,N
1645954715.2,286047002.7,N
1645954735.1,286046998.1,N
1645954736.0,286046998.1,N
1645954755.8,286046998.4,N
1645954775.6,286047000.8,N
1645954795.5,286047001.2,N
1645954815.3,286046999.0,N
1645954835.2,286046999.2,N
1645954855.0,286046999.5,N
1645954855.9,286046999.5,N
1645954875.7,286046998.9,N
1645954895.6,286047001.1,N
1645954915.4,286047001.2,N
1645954935.3,286047000.6,N
1645954955.1,286047002.6,N
1645954975.8,286047000.3,N
1645954995.7,286047000.5,N
1645955015.5,286047000.0,N
1645955035.4,286047000.9,N
1645955055.2,286047002.3,N
1645955075.0,286047000.1,N
1645955075.9,286047000.1,N
1645955095.8,286047000.2,N
1645955115.6,286046999.9,N
1645955135.5,286047000.0,N
1645955155.3,286046998.2,N
1645955175.1,286046998.4,N
1645955195.9,286047000.6,N
1645955215.7,286046998.2,N
1645955235.5,286046998.3,N
1645955255.4,286046999.3,N
1645955275.2,286047001.2,N
1645955295.0,286046998.1,N
1645955296.0,286046998.1,N
1645955315.8,286046998.4,N
1645955335.6,286046999.1,N
1645955355.5,286046997.8,N
1645955375.3,286046995.2,Y
1645955395.1,286046995.1,P
1645955415.9,286046997.3,N
1645955435.7,286046997.7,N
1645955455.6,286046995.4,N
1645955475.4,286046998.0,N
1645955495.2,286046996.8,N
1645955515.1,286046996.7,N
1645955516.0,286046996.7,N
1645955535.8,286046999.6,N
1645955555.6,286046996.6,N
1645955575.5,286046999.4,N
1645955595.3,286046999.0,N
1645955615.2,286046999.4,N
1645955635.9,286046999.4,N
1645955655.7,286046999.6,N
1645955675.6,286046999.4,N
1645955695.4,286046997.1,N
1645955715.2,286046999.6,N
1645955735.1,286046997.8,N
1645955736.0,286046997.8,N
1645955755.8,286046997.4,N
1645955775.7,286046997.1,N
1645955795.5,286046997.9,N
1645955815.3,286046996.7,N
1645955835.2,286046997.3,N
1645955855.0,286046997.8,N
1645955855.9,286046997.8,N
1645955875.8,286046997.3,N
1645955895.6,286046997.6,N
1645955915.4,286046996.7,N
1645955935.3,286046995.0,Y
1645955955.1,286046997.1,P
1645955975.9,286046997.3,P
1645955995.7,286046996.7,P
